This demonstration page uses our WeatherBlox Daily Observations layout. Learn more.

Left ArrowRight Arrow

39.92423, -83.80882

Hourly Observations for October 21, 2021

Temp ( °F °C ) Dew Point ( °F °C ) Humidity (%) Winds ( mph kmh ) Pressure ( in mb ) Visibility ( mi km ) Precip ( " mm )
12:56 am 00:56 Mostly Clear 60 15.6 53 11.7 78 78 SW 12 19 30.04 1017 10 16 N/A
1:56 am 01:56 Clear 58 14.4 53 11.7 84 84 SSW 12 19 30.03 1017 10 16 N/A
2:56 am 02:56 Clear 58 14.4 53 11.7 84 84 SSW 10 17 30.01 1016 10 16 N/A
3:56 am 03:56 Clear 59 15 54 12.2 83 83 SSW 10 17 29.99 1016 10 16 N/A
4:56 am 04:56 Clear 58 14.4 56 13.3 93 93 SSW 9 15 29.98 1015 10 16 N/A
5:56 am 05:56 Clear 57 13.9 57 13.9 100 100 SSW 6 9 29.96 1015 10 16 N/A
6:56 am 06:56 Clear 58 14.4 58 14.4 100 100 SSW 10 17 29.94 1014 10 16 N/A
7:56 am 07:56 Mostly Cloudy 57 14 N/A N/A SSW 12 19 29.93 1014 10 16 N/A
8:51 am 08:51 Cloudy with Nearby Thunderstorms 59 15 N/A N/A SW 12 19 29.92 1013 10 16 N/A
8:56 am 08:56 Cloudy with Nearby Thunderstorms 59 15 N/A N/A SSW 12 19 29.93 1014 10 16 N/A
9:26 am 09:26 Cloudy 59 15 N/A N/A SSW 13 20 29.92 1013 10 16 N/A
9:43 am 09:43 Cloudy 59 15 N/A N/A SSW 12 19 29.92 1013 10 16 N/A
9:56 am 09:56 Cloudy 59 15 N/A N/A SSW 13 20 29.93 1014 10 16 N/A
10:56 am 10:56 Cloudy 61 16 N/A N/A SSW 9 15 29.91 1013 9 14 N/A
11:56 am 11:56 Cloudy 63 17.2 63 17.2 100 100 SW 14 22 29.90 1013 9 14 N/A
12:42 pm 12:42 Cloudy 63 17 N/A N/A SSW 12 19 29.87 1012 9 14 N/A
12:56 pm 12:56 Mostly Cloudy 66 18.9 65 18.3 96 96 SW 14 22 29.88 1012 10 16 N/A
1:35 pm 13:35 Mostly Cloudy 70 21 61 16 73 73 SW 20 31 29.82 1010 10 16 N/A
1:56 pm 13:56 Partly Cloudy 70 21.1 60 15.6 71 71 SW 17 28 29.83 1010 10 16 N/A
2:56 pm 14:56 Partly Cloudy 70 21.1 55 12.8 59 59 WSW 23 37 29.81 1010 10 16 N/A
3:56 pm 15:56 Mostly Cloudy 66 18.9 49 9.4 54 54 WNW 24 39 29.83 1010 10 16 N/A
4:56 pm 16:56 Sunny 65 18.3 45 7.2 49 49 W 21 33 29.86 1011 10 16 N/A
5:56 pm 17:56 Partly Cloudy 59 15 47 8.3 64 64 WNW 25 41 29.90 1013 10 16 N/A
6:56 pm 18:56 Mostly Cloudy 55 12.8 44 6.7 67 67 W 20 31 29.93 1014 10 16 N/A
7:56 pm 19:56 Mostly Cloudy 53 11.7 45 7.2 74 74 WNW 16 26 29.97 1015 10 16 N/A
8:56 pm 20:56 Cloudy 53 11.7 46 7.8 77 77 W 13 20 29.98 1015 10 16 N/A
9:06 pm 21:06 Cloudy 54 12 46 8 77 77 W 12 19 29.98 1015 10 16 N/A
9:56 pm 21:56 Cloudy 53 11.7 47 8.3 80 80 W 15 24 29.99 1016 10 16 N/A
10:10 pm 22:10 Cloudy 54 12 46 8 77 77 WNW 18 30 29.99 1016 10 16 N/A
10:56 pm 22:56 Cloudy 53 11.7 47 8.3 80 80 WNW 13 20 30.01 1016 10 16 N/A
11:56 pm 23:56 Cloudy 52 11.1 48 8.9 86 86 WNW 20 31 30.00 1016 10 16 N/A

Powered by AerisWeather